Regional Weather Roundup
Issued by NWS Kansas City/Pleasant Hill, MO

Home | Current Version | Previous Version | Graphics & Text | Print | Product List | Glossary Off
Versions: 1 2 3 4 5 6 7 8 9 10 11 12 13 14 15 16 17 18 19 20 21 22 23 24 25 26 27 28 29 30 31 32 33 34 35 36 37 38 39 40 41 42 43 44 45 46 47 48 49 50

000
ASUS43 KEAX 021004
RWREAX

WEATHER ROUNDUP FOR EASTERN KANSAS AND NORTHWEST MISSOURI
NATIONAL WEATHER SERVICE KANSAS CITY/PLEASANT HILL MO
400 AM CST MON MAR 02 2015

KSZ040-057-103>105-MOZ028-029-037-043-021100-
...KANSAS CITY METROPOLITAN AREA...

CITY           SKY/WX    TMP DP  RH WIND       PRES   REMARKS
K.C. INTL      PTCLDY    24  19  81 NW3       30.48F
K.C. DOWNTOWN  CLEAR     22  18  85 CALM      30.50F
LEES SUMMIT    PTCLDY    23  19  85 CALM      30.48F
OLATHE - IXD   PTCLDY    18  16  92 CALM      30.48F
OLATHE - OJC   PTCLDY    19  17  92 CALM      30.47F
LAWRENCE       MOCLDY    19  16  88 CALM      30.50S

$$

MOZ001>008-011>017-020>025-030>033-038>040-044>046-053-054-021100-
...NORTHERN AND CENTRAL MISSOURI...

CITY           SKY/WX    TMP DP  RH WIND       PRES   REMARKS
ST. JOSEPH     CLOUDY    25  23  92 SE3       30.49F
MOSBY          PTSUNNY   19  19 100 CALM      30.51S
WARRENSBURG    PTCLDY    12   9  85 S6        30.51R WCI   3
WHITEMAN AFB   PTCLDY     7   3  85 S3        30.50R
CLINTON        PTCLDY    14  12  92 CALM      30.52R FOG
SEDALIA        PTCLDY    16  13  88 SW5       30.51R FOG     WCI   9
WARSAW         NOT AVBL
MARSHALL       MOCLDY    18  16  93 CALM      30.52F FOG
CHILLICOTHE      N/A     20  16  84 CALM      30.51F
MOBERLY        PTCLDY    19  14  79 W3        30.51F FOG
KIRKSVILLE     CLOUDY    19  17  92 W3        30.49S

$$

MOZ041-047>049-056>058-063>065-088>090-097-021100-
...EASTERN AND SOUTHERN MISSOURI...

CITY           SKY/WX    TMP DP  RH WIND       PRES   REMARKS
ST. LOUIS INTL PTCLDY    18  14  84 CALM      30.51S
SPIRIT OF STL  PTCLDY     8   4  83 CALM      30.51F
COLUMBIA       MOCLDY    18  17  96 NW5       30.49S FOG     WCI  11
JEFFERSON CITY CLOUDY    12   9  87 CALM      30.53R FOG
MEXICO         FOG       14  14 100 NW5       30.50F VSB 1   WCI   6
HANNIBAL       MOCLDY    21  18  86 W5        30.50S WCI  15
ROLLA          PTCLDY    15  13  91 CALM      30.46F FOG
LEBANON        PTCLDY    18  16  93 NE3       30.47F
OSAGE BEACH    PTCLDY    12   9  85 CALM      30.49S
SPRINGFIELD    PTCLDY    22  17  81 NE8       30.45F WCI  12
NEVADA         MOCLDY    18  16  93 NE3       30.50F FOG
JOPLIN         PTCLDY    21  18  88 NE6       30.47F FOG     WCI  13
WEST PLAINS    PTCLDY    24  20  84 NE7       30.46S WCI  16

$$

IAZ060-094-KSZ022-034>040-054-083-096-NEZ052-066-093-021100-
...KANSAS...SOUTHEAST NEBRASKA AND IOWA...

CITY           SKY/WX    TMP DP  RH WIND       PRES   REMARKS
TOPEKA         PTCLDY    21  18  88 CALM      30.49F
MANHATTAN      MOCLDY    21  19  92 CALM      30.47F
EMPORIA        PTCLDY    20  17  88 CALM      30.45F
CHANUTE        PTCLDY    18  16  92 CALM      30.47F
WICHITA        MOCLDY    19  16  88 CALM      30.45F FOG
OMAHA          CLOUDY    23  16  74 CALM      30.48F
LINCOLN        MOCLDY    26  16  65 CALM      30.47F
FALLS CITY     MOCLDY    26  21  81 CALM      30.46F
LAMONI         MOCLDY    23  16  74 NW5       30.49R WCI  17
DES MOINES     MOCLDY    20  12  71 CALM      30.50S

$$



USA.gov is the U.S. government's official web portal to all federal, state and local government web resources and services.